GW0898 Weather Reports


time (UTC)temp
C
wind
direction
speed
KPH
gust
KPH
rain 1hr
cm
rain 24hr
cm
rain mn
cm
humidity
%
barometer
mb
20260906174826 30 130 3.2 8.0 0.00 0.00 0.00 74 1010.4
20260906174320 30 187 3.2 8.0 0.00 0.00 0.00 74 1010.4
20260906174033 30 132 1.6 8.0 0.00 0.00 0.00 73 1010.6
20260906173308 30 100 1.6 6.4 0.00 0.00 0.00 73 1010.6
20260906172805 30 192 1.6 6.4 0.00 0.00 0.00 73 1010.7
20260906172252 30 223 1.6 6.4 0.00 0.00 0.00 72 1010.7
20260906172020 30 143 3.2 6.4 0.00 0.00 0.00 73 1010.7
20260906171250 30 178 3.2 6.4 0.00 0.00 0.00 72 1010.7
20260906170741 30 121 1.6 11.3 0.00 0.00 0.00 72 1010.7
20260906170728 30 196 3.2 11.3 0.00 0.00 0.00 72 1010.7
20260906165721 30 157 3.2 11.3 0.00 0.00 0.00 73 1010.9
20260906165223 30 130 3.2 8.0 0.00 0.00 0.00 74 1010.9
20260906164714 29 112 3.2 8.0 0.00 0.00 0.00 76 1010.9
20260906164434 29 105 3.2 11.3 0.00 0.00 0.00 76 1011.0
20260906163702 29 140 3.2 11.3 0.00 0.00 0.00 75 1010.9
20260906163157 29 110 3.2 11.3 0.00 0.00 0.00 75 1010.9
20260906162650 29 173 1.6 8.0 0.00 0.00 0.00 75 1011.0
20260906162140 29 106 3.2 8.0 0.00 0.00 0.00 75 1011.0
20260906161638 29 107 4.8 14.5 0.00 0.00 0.00 74 1010.9
20260906161132 29 176 4.8 14.5 0.00 0.00 0.00 74 1010.6
20260906160626 29 139 3.2 9.7 0.00 0.00 0.00 74 1010.7
20260906160120 30 158 3.2 8.0 0.00 0.00 0.00 74 1010.7
20260906155608 30 172 3.2 14.5 0.00 0.00 0.00 74 1010.9
20260906155111 29 196 3.2 14.5 0.00 0.00 0.00 74 1010.9
20260906154603 29 82 1.6 6.4 0.00 0.00 0.00 76 1010.9
20260906154102 29 81 3.2 9.7 0.00 0.00 0.00 77 1010.8
20260906153601 28 103 3.2 9.7 0.00 0.00 0.00 77 1010.8
20260906153104 28 131 3.2 11.3 0.00 0.00 0.00 79 1010.8
20260906152824 28 80 1.6 11.3 0.00 0.00 0.00 79 1010.9
20260906152100 28 129 1.6 8.0 0.00 0.00 0.00 80 1010.9
20260906151556 28 165 3.2 6.4 0.00 0.00 0.00 81 1010.9
20260906151053 28 98 3.2 6.4 0.00 0.00 0.00 81 1010.8
20260906150552 28 126 3.2 6.4 0.00 0.00 0.00 81 1010.8
20260906150052 28 163 3.2 8.0 0.00 0.00 0.00 81 1010.8
20260906145552 28 157 3.2 11.3 0.00 0.00 0.00 82 1010.7
20260906145041 27 103 4.8 11.3 0.00 0.00 0.00 82 1010.7
20260906144538 27 149 4.8 11.3 0.00 0.00 0.00 84 1010.6
20260906144042 27 139 4.8 11.3 0.00 0.00 0.00 86 1010.7
20260906143803 27 133 4.8 17.7 0.00 0.00 0.00 87 1010.7
20260906143301 27 144 4.8 17.7 0.00 0.00 0.00 88 1010.6
20260906142537 26 142 3.2 9.7 0.00 0.00 0.00 91 1011.0
20260906142037 26 143 3.2 8.0 0.00 0.00 0.00 93 1011.0
20260906141537 26 140 3.2 8.0 0.00 0.00 0.00 95 1010.9
20260906141035 26 175 3.2 9.7 0.00 0.00 0.00 96 1011.3
20260906140535 25 130 3.2 9.7 0.00 0.00 0.00 96 1011.3
20260906140036 25 113 3.2 9.7 0.00 0.00 0.00 96 1011.2
20260906135533 25 158 3.2 19.3 0.00 0.00 0.00 97 1011.2
20260906135033 25 163 3.2 19.3 0.00 0.00 0.00 97 1011.2
20260906134534 25 148 3.2 11.3 0.00 0.00 0.00 97 1011.2
20260906134515 25 142 3.2 8.0 0.00 0.00 0.00 98 1011.0
20260906133536 25 144 3.2 11.3 0.00 0.00 0.00 98 1011.0
20260906133027 25 165 3.2 11.3 0.00 0.00 0.00 98 1011.0
20260906132521 25 141 3.2 11.3 0.00 0.00 0.00 98 1010.8
20260906132021 25 124 3.2 9.7 0.00 0.00 0.00 98 1010.8
20260906131521 25 133 3.2 9.7 0.00 0.00 0.00 99 1010.7
20260906131240 25 132 4.8 14.5 0.00 0.00 0.00 99 1010.7
20260906130509 25 152 4.8 14.5 0.00 0.00 0.00 99 1010.7
20260906130009 25 154 3.2 11.3 0.00 0.00 0.00 99 1010.7
20260906125511 25 103 3.2 9.7 0.00 0.00 0.00 99 1010.4
20260906125010 25 148 3.2 9.7 0.00 0.00 0.00 99 1010.4
20260906124510 25 133 3.2 8.0 0.00 0.00 0.00 99 1010.4
20260906124007 24 69 3.2 8.0 0.00 0.00 0.00 99 1010.4
20260906123506 24 134 3.2 9.7 0.00 0.00 0.00 99 1010.4
20260906123235 24 137 3.2 9.7 0.00 0.00 0.00 99 1010.4
20260906122507 24 134 3.2 8.0 0.00 0.00 0.00 99 1010.1
20260906122002 24 86 3.2 8.0 0.00 0.00 0.00 99 1010.1
20260906121451 24 166 1.6 6.4 0.00 0.00 0.00 99 1010.1
20260906120938 24 135 1.6 8.0 0.00 0.00 0.00 99 1009.9
20260906120915 24 144 3.2 8.0 0.00 0.00 0.00 99 1009.9
20260906115926 24 134 3.2 8.0 0.00 0.00 0.00 99 1009.9
20260906115419 24 115 3.2 8.0 0.00 0.00 0.00 99 1009.7
20260906114921 24 145 3.2 8.0 0.00 0.00 0.00 99 1009.7
20260906114413 24 117 3.2 9.7 0.00 0.00 0.00 99 1009.7
20260906113910 24 111 3.2 9.7 0.00 0.00 0.00 99 1009.5
20260906113410 24 77 3.2 9.7 0.00 0.00 0.00 99 1009.5
20260906112910 24 146 3.2 9.7 0.00 0.00 0.00 99 1009.5
20260906112412 24 153 3.2 8.0 0.00 0.00 0.00 99 1009.7
20260906111908 24 126 3.2 9.7 0.00 0.00 0.00 98 1009.7
20260906111623 24 116 3.2 9.7 0.00 0.00 0.00 98 1009.7
20260906110906 24 105 4.8 11.3 0.00 0.00 0.00 98 1009.6
20260906110408 24 127 4.8 11.3 0.00 0.00 0.00 98 1009.6
20260906105906 24 101 4.8 12.9 0.00 0.00 0.00 98 1009.6
20260906105636 24 126 4.8 12.9 0.00 0.00 0.00 98 1009.3
20260906104905 24 79 4.8 9.7 0.00 0.00 0.00 98 1009.3
20260906104405 24 158 3.2 8.0 0.00 0.00 0.00 97 1009.3
20260906103901 23 55 4.8 14.5 0.00 0.00 0.00 97 1009.3
20260906103355 23 93 4.8 14.5 0.00 0.00 0.00 97 1009.3
20260906102849 23 118 3.2 14.5 0.00 0.00 0.00 96 1009.3
20260906102343 23 112 3.2 14.5 0.00 0.00 0.00 96 1009.2
20260906102051 23 63 3.2 9.7 0.00 0.00 0.00 96 1009.2
20260906101332 24 116 3.2 9.7 0.00 0.00 0.00 96 1009.2
20260906100831 24 87 1.6 8.0 0.00 0.00 0.00 96 1009.3
20260906100334 24 75 1.6 8.0 0.00 0.00 0.00 96 1009.3
20260906095824 24 75 1.6 8.0 0.00 0.00 0.00 96 1009.3
20260906095321 24 110 1.6 4.8 0.00 0.00 0.00 96 1009.2
20260906094822 24 98 1.6 4.8 0.00 0.00 0.00 96 1009.2
20260906094253 24 130 1.6 6.4 0.00 0.00 0.00 96 1009.1
20260906093750 24 152 1.6 6.4 0.00 0.00 0.00 96 1009.1
20260906093251 24 143 1.6 6.4 0.00 0.00 0.00 96 1009.1
20260906093012 24 126 0.0 4.8 0.00 0.00 0.00 96 1009.1
20260906092249 24 84 0.0 1.6 0.00 0.00 0.00 95 1009.1
20260906091752 24 84 0.0 0.0 0.00 0.00 0.00 95 1009.1
20260906091249 24 84 0.0 3.2 0.00 0.00 0.00 95 1008.9
20260906090745 24 84 1.6 3.2 0.00 0.00 0.00 95 1008.9
20260906090713 24 84 0.0 3.2 0.00 0.00 0.00 95 1008.9
20260906085951 24 128 0.0 4.8 0.00 0.00 0.00 95 1008.8
20260906085217 24 103 1.6 4.8 0.00 0.00 0.00 95 1008.8
20260906084658 24 132 1.6 3.2 0.00 0.00 0.00 95 1008.8
20260906084158 24 148 1.6 4.8 0.00 0.00 0.00 95 1008.8
20260906083638 24 148 1.6 6.4 0.00 0.00 0.00 95 1008.8
20260906083124 24 103 1.6 6.4 0.00 0.00 0.00 95 1008.8
20260906082617 24 93 1.6 6.4 0.00 0.00 0.00 94 1008.7
20260906082111 24 127 1.6 8.0 0.00 0.00 0.00 94 1008.7
20260906081605 24 130 1.6 8.0 0.00 0.00 0.00 94 1008.7
20260906081100 24 116 1.6 8.0 0.00 0.00 0.00 94 1008.8
20260906080549 24 146 1.6 8.0 0.00 0.00 0.00 95 1008.8
20260906080048 24 150 3.2 6.4 0.00 0.00 0.00 94 1008.8
20260906075545 24 115 1.6 6.4 0.00 0.00 0.00 94 1008.8
20260906075040 24 102 1.6 4.8 0.00 0.00 0.00 94 1008.8
20260906074540 24 148 1.6 6.4 0.00 0.00 0.00 94 1008.8
20260906074018 25 92 1.6 6.4 0.00 0.00 0.00 94 1008.9
20260906073517 25 138 1.6 6.4 0.00 0.00 0.00 94 1008.9
20260906073011 25 153 1.6 4.8 0.00 0.00 0.00 94 1008.9
20260906072505 25 134 1.6 6.4 0.00 0.00 0.00 93 1009.0
20260906071959 25 134 1.6 6.4 0.00 0.00 0.00 93 1009.0
20260906071937 25 143 1.6 8.0 0.00 0.00 0.00 93 1009.0
20260906070947 25 135 1.6 8.0 0.00 0.00 0.00 93 1009.4
20260906070439 25 157 1.6 6.4 0.00 0.00 0.00 93 1009.4
20260906065935 25 114 1.6 6.4 0.00 0.00 0.00 93 1009.4
20260906065429 25 155 1.6 4.8 0.00 0.00 0.00 93 1009.4
20260906065158 25 130 1.6 6.4 0.00 0.00 0.00 93 1009.4
20260906064905 25 163 3.2 6.4 0.00 0.00 0.00 93 1009.4
20260906063906 25 112 1.6 6.4 0.00 0.00 0.00 92 1009.5
20260906063405 25 132 1.6 6.4 0.00 0.00 0.00 92 1009.5
20260906062900 25 138 1.6 3.2 0.00 0.00 0.00 92 1009.5
20260906062620 25 120 1.6 4.8 0.00 0.00 0.00 92 1009.4
20260906061847 25 140 1.6 6.4 0.00 0.00 0.00 92 1009.4
20260906061344 25 126 3.2 6.4 0.00 0.00 0.00 92 1009.4
20260906060836 25 125 3.2 6.4 0.00 0.00 0.00 92 1009.4
20260906060324 25 142 3.2 6.4 0.00 0.00 0.00 92 1009.4
20260906055825 25 111 1.6 6.4 0.00 0.00 0.00 91 1009.4
20260906055317 25 139 1.6 6.4 0.00 0.00 0.00 91 1009.6
20260906054811 25 118 1.6 4.8 0.00 0.00 0.00 91 1009.6
20260906054305 25 117 1.6 8.0 0.00 0.00 0.00 91 1009.6
20260906053754 25 146 3.2 8.0 0.00 0.00 0.00 90 1009.4
20260906053255 25 119 3.2 6.4 0.00 0.00 0.00 90 1009.4
20260906052750 25 143 3.2 6.4 0.00 0.00 0.00 90 1009.2
20260906052241 26 138 3.2 6.4 0.00 0.00 0.00 89 1009.2
20260906051735 26 140 3.2 6.4 0.00 0.00 0.00 89 1009.2
20260906051224 26 119 1.6 6.4 0.00 0.00 0.00 89 1009.4
20260906050953 26 118 1.6 6.4 0.00 0.00 0.00 88 1009.4
20260906050219 26 98 1.6 8.0 0.00 0.00 0.00 88 1009.4
20260906045937 26 107 1.6 8.0 0.00 0.00 0.00 88 1009.5
20260906045216 26 161 1.6 6.4 0.00 0.00 0.00 88 1009.6
20260906044700 26 135 1.6 4.8 0.00 0.00 0.00 88 1009.6
20260906044421 26 144 1.6 4.8 0.00 0.00 0.00 87 1009.5
20260906043648 26 79 3.2 6.4 0.00 0.00 0.00 87 1009.5
20260906043357 26 65 3.2 6.4 0.00 0.00 0.00 87 1009.5
20260906042639 26 124 1.6 6.4 0.00 0.00 0.00 87 1009.6
20260906042133 26 134 3.2 6.4 0.00 0.00 0.00 86 1009.6
20260906041624 26 146 3.2 6.4 0.00 0.00 0.00 86 1009.6
20260906041118 26 112 3.2 6.4 0.00 0.00 0.00 86 1009.6
20260906040606 26 101 1.6 6.4 0.00 0.00 0.00 85 1009.6
20260906040328 26 86 1.6 8.0 0.00 0.00 0.00 84 1009.6
20260906035558 26 92 1.6 8.0 0.00 0.00 0.00 84 1009.3
20260906035314 26 109 3.2 8.0 0.00 0.00 0.00 84 1009.4
20260906034549 27 161 3.2 8.0 0.00 0.00 0.00 83 1009.4
20260906034040 27 123 3.2 9.7 0.00 0.00 0.00 83 1009.2
20260906033529 27 121 4.8 9.7 0.00 0.00 0.00 83 1009.2
20260906033249 27 98 4.8 9.7 0.00 0.00 0.00 83 1009.2
20260906032521 27 80 3.2 9.7 0.00 0.00 0.00 83 1009.0
20260906032016 27 119 3.2 9.7 0.00 0.00 0.00 83 1009.0
20260906031514 27 69 3.2 9.7 0.00 0.00 0.00 83 1009.0
20260906031016 27 70 3.2 12.9 0.00 0.00 0.00 83 1009.2
20260906030514 27 112 4.8 12.9 0.00 0.00 0.00 83 1009.2
20260906030016 27 92 3.2 11.3 0.00 0.00 0.00 82 1009.2
20260906025517 27 80 3.2 6.4 0.00 0.00 0.00 82 1009.1
20260906025007 27 141 3.2 9.7 0.00 0.00 0.00 82 1009.2
20260906024459 27 109 3.2 9.7 0.00 0.00 0.00 81 1009.2
20260906024000 27 98 1.6 8.0 0.00 0.00 0.00 81 1008.9
20260906023455 27 119 3.2 8.0 0.00 0.00 0.00 81 1008.9
20260906022954 27 88 3.2 8.0 0.00 0.00 0.00 80 1008.9
20260906022451 27 57 3.2 8.0 0.00 0.00 0.00 80 1008.7
20260906021947 28 92 3.2 8.0 0.00 0.00 0.00 79 1008.7
20260906021714 28 88 3.2 8.0 0.00 0.00 0.00 79 1008.7
20260906021424 28 128 3.2 8.0 0.00 0.00 0.00 78 1008.8
20260906020702 28 105 1.6 6.4 0.00 0.00 0.00 78 1008.8
20260906015922 28 116 1.6 6.4 0.00 0.00 0.00 78 1008.8
20260906015418 28 89 3.2 6.4 0.00 0.00 0.00 78 1008.4
20260906014917 28 86 3.2 6.4 0.00 0.00 0.00 78 1008.4
20260906014639 28 88 3.2 6.4 0.00 0.00 0.00 77 1008.4
20260906013904 28 50 3.2 6.4 0.00 0.00 0.00 77 1008.3
20260906013350 28 105 1.6 4.8 0.00 0.00 0.00 77 1008.3
20260906012851 28 93 1.6 6.4 0.00 0.00 0.00 77 1008.4
20260906012349 28 118 1.6 6.4 0.00 0.00 0.00 76 1007.9
20260906011853 28 91 1.6 6.4 0.00 0.00 0.00 76 1007.9
20260906011338 29 84 3.2 6.4 0.00 0.00 0.00 75 1007.9
20260906010835 29 121 3.2 6.4 0.00 0.00 0.00 75 1007.9
20260906010335 29 80 1.6 6.4 0.00 0.00 0.00 74 1007.9
20260906010306 29 114 1.6 6.4 0.00 0.00 0.00 74 1008.0
20260906005545 29 94 3.2 6.4 0.00 0.00 0.00 73 1008.0
20260906004809 29 113 3.2 8.0 0.00 0.00 0.00 73 1008.0
20260906004757 30 120 3.2 8.0 0.00 0.00 0.00 72 1008.1
20260906003753 30 109 3.2 6.4 0.00 0.00 0.00 71 1008.1
20260906003251 30 103 3.2 8.0 0.00 0.00 0.00 70 1008.3
20260906002748 30 118 1.6 8.0 0.00 0.00 0.00 69 1008.3
20260906002239 30 115 1.6 6.4 0.00 0.00 0.00 69 1008.3
20260906001734 30 117 1.6 4.8 0.00 0.00 0.00 68 1008.3
20260906001228 31 117 3.2 8.0 0.00 0.00 0.00 67 1008.1
20260906000724 31 90 4.8 8.0 0.00 0.00 0.00 67 1008.3
20260906000212 31 113 3.2 8.0 0.00 0.00 0.00 66 1008.3
20260905235709 31 55 1.6 6.4 0.00 0.00 0.00 65 1008.5
20260905235204 31 110 1.6 8.0 0.00 0.00 0.00 64 1008.5
20260905234700 31 137 3.2 9.7 0.00 0.00 0.00 63 1008.5
20260905234151 31 102 3.2 9.7 0.00 0.00 0.00 63 1008.1
20260905233641 31 58 3.2 11.3 0.00 0.00 0.00 63 1008.1
20260905233342 31 123 3.2 6.4 0.00 0.00 0.00 63 1008.1
20260905233221 31 88 3.2 11.3 0.00 0.00 0.00 63 1008.3
20260905232127 32 119 3.2 6.4 0.00 0.00 0.00 62 1008.1
20260905232104 32 90 1.6 4.8 0.00 0.00 0.00 62 1008.1
20260905231115 32 90 3.2 8.0 0.00 0.00 0.00 61 1008.0
20260905230609 32 115 3.2 8.0 0.00 0.00 0.00 62 1008.0
20260905230059 32 100 3.2 11.3 0.00 0.00 0.00 61 1008.0
20260905225600 32 152 4.8 11.3 0.00 0.00 0.00 60 1007.8
20260905225054 32 93 3.2 9.7 0.00 0.00 0.00 60 1007.8
20260905224542 32 199 3.2 11.3 0.00 0.00 0.00 60 1007.8
20260905224043 32 88 4.8 14.5 0.00 0.00 0.00 60 1007.8
20260905223530 32 127 4.8 14.5 0.00 0.00 0.00 59 1007.8
20260905223240 32 113 4.8 11.3 0.00 0.00 0.00 59 1007.8
20260905222517 32 88 4.8 9.7 0.00 0.00 0.00 58 1007.7
20260905222007 32 140 4.8 14.5 0.00 0.00 0.00 58 1007.7
20260905221505 31 125 4.8 14.5 0.00 0.00 0.00 59 1007.7
20260905220959 31 105 4.8 14.5 0.00 0.00 0.00 60 1007.7
20260905220448 31 156 4.8 11.3 0.00 0.00 0.00 59 1007.8
20260905215947 32 105 4.8 14.5 0.00 0.00 0.00 59 1007.8
20260905215442 32 111 4.8 14.5 0.00 0.00 0.00 58 1007.8
20260905214935 32 97 4.8 11.3 0.00 0.00 0.00 57 1007.8
20260905214655 32 103 4.8 16.1 0.00 0.00 0.00 60 1007.8
20260905213923 32 166 6.4 16.1 0.00 0.00 0.00 58 1008.3
20260905213417 32 132 6.4 14.5 0.00 0.00 0.00 60 1008.3
20260905213137 32 134 4.8 11.3 0.00 0.00 0.00 59 1008.3
20260905212405 32 76 4.8 14.5 0.00 0.00 0.00 60 1008.4
20260905211859 32 145 6.4 14.5 0.00 0.00 0.00 59 1008.4
20260905211354 32 107 4.8 11.3 0.00 0.00 0.00 60 1008.4
20260905210847 32 108 4.8 11.3 0.00 0.00 0.00 61 1008.8
20260905210335 31 134 4.8 12.9 0.00 0.00 0.00 62 1008.7
20260905205835 31 170 4.8 12.9 0.00 0.00 0.00 62 1008.7
20260905205329 31 122 6.4 17.7 0.00 0.00 0.00 62 1008.9
20260905204823 31 126 4.8 17.7 0.00 0.00 0.00 61 1008.9
20260905204317 31 144 4.8 9.7 0.00 0.00 0.00 62 1008.9
20260905203816 31 139 4.8 9.7 0.00 0.00 0.00 62 1009.0
20260905203315 31 117 4.8 11.3 0.00 0.00 0.00 62 1009.0
20260905202812 31 98 3.2 11.3 0.00 0.00 0.00 65 1008.9
20260905202313 31 217 4.8 11.3 0.00 0.00 0.00 63 1009.2
20260905201812 31 124 4.8 11.3 0.00 0.00 0.00 64 1009.2
20260905201310 30 75 4.8 16.1 0.00 0.00 0.00 67 1009.2
20260905200810 30 94 6.4 17.7 0.00 0.00 0.00 65 1009.4
20260905200308 30 173 6.4 17.7 0.00 0.00 0.00 64 1009.4
20260905195808 30 101 6.4 14.5 0.00 0.00 0.00 63 1009.4
20260905195309 30 80 4.8 14.5 0.00 0.00 0.00 65 1009.6
20260905194806 30 109 4.8 11.3 0.00 0.00 0.00 64 1009.6
20260905194534 30 140 4.8 19.3 0.00 0.00 0.00 66 1009.6
20260905193806 30 96 6.4 19.3 0.00 0.00 0.00 64 1009.9
20260905193305 30 84 4.8 14.5 0.00 0.00 0.00 65 1009.9
20260905192804 29 82 4.8 16.1 0.00 0.00 0.00 67 1010.0
20260905192306 29 84 4.8 16.1 0.00 0.00 0.00 68 1009.9
20260905191804 28 10 3.2 6.4 0.00 0.00 0.00 69 1009.9
20260905191305 28 105 4.8 11.3 0.00 0.00 0.00 69 1010.1
20260905190801 28 43 4.8 14.5 0.00 0.00 0.00 68 1010.1
20260905190256 28 114 4.8 14.5 0.00 0.00 0.00 68 1010.1
20260905185749 28 152 4.8 14.5 0.00 0.00 0.00 67 1010.5
20260905185503 28 22 4.8 14.5 0.00 0.00 0.00 66 1010.5
20260905184733 28 355 6.4 19.3 0.00 0.00 0.00 65 1010.5
20260905184231 28 99 6.4 19.3 0.00 0.00 0.00 65 1010.7
20260905183725 28 68 6.4 17.7 0.00 0.00 0.00 63 1010.7
20260905183219 28 130 6.4 14.5 0.00 0.00 0.00 64 1010.8
20260905182713 28 103 8.0 19.3 0.00 0.00 0.00 66 1010.8
20260905182203 28 342 8.0 19.3 0.00 0.00 0.00 65 1010.8
20260905181701 28 355 8.0 19.3 0.00 0.00 0.00 64 1010.7
20260905181155 28 16 6.4 19.3 0.00 0.00 0.00 64 1010.6
20260905180649 28 99 6.4 19.3 0.00 0.00 0.00 65 1010.6
20260905180144 28 24 6.4 16.1 0.00 0.00 0.00 63 1010.6
20260905180112 28 340 6.4 17.7 0.00 0.00 0.00 63 1010.7